Kuwait, Kuwait

5:22 AM +03 on March 26, 2017 (GMT +0300)
Kuwait International

Weather History for OKBK - April, 2013

Change the Weather History Date:

Friday, April 26, 2013

  Actual Average Record
Temperature  
Mean Temperature 72 °F -  
Max Temperature 87 °F 99 °F 111 °F (1999)
Min Temperature 57 °F 74 °F 57 °F (2013)
Cooling Degree Days 7    
Growing Degree Days 22 (Base 50)    
Moisture  
Dew Point 18 °F    
Average Humidity 13    
Maximum Humidity 26    
Minimum Humidity 4    
Precipitation  
Precipitation 0.00 in 0.01 in - ()
Sea Level Pressure  
Sea Level Pressure 29.94 in    
Wind  
Wind Speed 6 mph ()    
Max Wind Speed 13 mph    
Max Gust Speed -    
Visibility 7.7 miles    
Events      
Averages and records for this station are not official NWS values.
T = Trace of Precipitation, MM = Missing Value Source: Averaged Metar Reports

Daily Weather History Graph

Daily Weather History Graph

Search for Another Location

Airport or City:

Trip Planner

Search our weather history database for the weather conditions in past years. The results will help you decide how hot, cold, wet, or windy it might be!

Date:

Astronomy

Apr. 26, 2013 Rise Set
Actual Time 5:11 AM +03 6:21 PM +03
Civil Twilight 4:46 AM +03 6:46 PM +03
Nautical Twilight 4:16 AM +03 7:15 PM +03
Astronomical Twilight 3:46 AM +03 7:46 PM +03
Moon 7:12 PM +03 5:23 AM +03
Length of Visible Light 13h 59m
Length of Day
13h 10m
Full, 100% of the Moon is Illuminated
Apr 26
Full
May 2
Last Quarter
May 10
New
May 18
First Quarter
May 25
Full

Hourly Weather History & Observations

Time (+03) Temp. Dew Point Humidity Pressure Visibility Wind Dir Wind Speed Gust Speed Precip Events Conditions
12:00 AM 69.8 °F 23.0 °F 17% 29.95 in - North 4.6 mph - N/A   Clear
1:00 AM 62.6 °F 12.2 °F 14% 29.95 in - WSW 3.5 mph - N/A   Clear
2:00 AM 62.6 °F 12.2 °F 14% 29.92 in - NNW 3.5 mph - N/A   Clear
3:00 AM 59 °F 10 °F 6% 29.94 in 6 mi WSW 6.9 mph - -  
3:00 AM 59.0 °F 10.4 °F 15% 29.92 in - WSW 6.9 mph - N/A   Clear
3:30 AM 59.0 °F 10.4 °F 15% 29.92 in - WSW 5.8 mph - N/A   Clear
4:00 AM 59.0 °F 10.4 °F 15% 29.92 in - WSW 6.9 mph - N/A   Clear
5:00 AM 57.2 °F 10.4 °F 16% 29.95 in - West 4.6 mph - N/A   Clear
6:00 AM 59.0 °F 10.4 °F 15% 29.95 in - WNW 4.6 mph - N/A   Clear
7:00 AM 69.8 °F 14.0 °F 12% 29.95 in - Calm Calm - N/A   Clear
8:00 AM 75.2 °F 19.4 °F 12% 29.98 in - NW 4.6 mph - N/A   Clear
9:00 AM 79 °F 24 °F 6% 29.98 in 13 mi NNW 8.1 mph - -  
9:00 AM 78.8 °F 24.8 °F 14% 29.98 in - NNW 8.1 mph - N/A   Clear
10:00 AM 82.4 °F 15.8 °F 8% 29.98 in - North 10.4 mph - N/A   Clear
11:00 AM 82.4 °F 15.8 °F 8% 29.98 in - North 9.2 mph - N/A   Clear
12:00 PM 86.0 °F 12.2 °F 6% 29.95 in - NNE 11.5 mph - N/A   Clear
1:00 PM 87.8 °F 10.4 °F 6% 29.95 in - North 6.9 mph - N/A   Clear
2:00 PM 87.8 °F 8.6 °F 5% 29.92 in - NNW 12.7 mph - N/A   Clear
3:00 PM 87 °F 9 °F 4% 29.90 in 6 mi North 11.5 mph - -   Clear
3:00 PM 87.8 °F 8.6 °F 5% 29.92 in - North 11.5 mph - N/A   Clear
4:00 PM 87.8 °F 6.8 °F 5% 29.89 in - North 8.1 mph - N/A   Clear
5:00 PM 86.0 °F 23.0 °F 10% 29.89 in - East 5.8 mph - N/A   Clear
6:00 PM 82.4 °F 28.4 °F 14% 29.89 in - SE 10.4 mph - N/A   Clear
7:00 PM 78.8 °F 23.0 °F 13% 29.89 in - SE 6.9 mph - N/A   Clear
8:00 PM 75.2 °F 26.6 °F 17% 29.92 in - SSE 8.1 mph - N/A   Clear
9:00 PM 72 °F 36 °F 17% 29.94 in 6 mi South 9.2 mph - -   Clear
9:00 PM 73.4 °F 35.6 °F 25% 29.92 in - South 9.2 mph - N/A   Clear
10:00 PM 69.8 °F 32.0 °F 25% 29.95 in - South 6.9 mph - N/A   Clear
11:00 PM 66.2 °F 30.2 °F 26% 29.95 in - South 5.8 mph - N/A   Clear